IRIDIUM 51 [S]

Last updated on Thu Nov 16 2017 00:18:57 GMT+0000 (Coordinated Universal Time)

1 25262U 98018A 17319.46712895 .00000598 00000-0 72546-4 0 9996 2 25262 86.3995 255.7087 0157395 162.0055 198.6825 14.72865888 32845
UTC large
Height (km)
Speed (km/s)
/
Latitude / Longitude
Inclination (degrees)
Orbital Period (minutes)
Azimuth
Elevation
Range (km)
Doppler Factor

Next 0 passes for location: London (51.5072 / 0.1276)

Sorry there are no passes over London.